Location: Birdsville
(25.8981°S, 139.3523°E)
Time: 15:15:14
(UTC+10:00)

BlueWalker 3 - Visible Passes

Search period start: 02 December 2023 00:00
Search period end: 12 December 2023 00:00
Orbit: 489 x 504 km, 53.2° (Epoch: 01 December)

Date Brightness Start Highest point End Pass type
(mag) Time Alt. Az. Time Alt. Az. Time Alt. Az.
02 Dec 4.6 21:18:04 10° WNW 21:19:18 11° WNW 21:20:15 10° NW visible
03 Dec 4.6 20:55:21 10° WNW 20:56:40 11° WNW 20:57:58 10° NW visible
04 Dec 4.7 20:32:36 10° W 20:34:01 12° WNW 20:35:25 10° NW visible
05 Dec 4.7 20:09:51 10° W 20:11:21 12° WNW 20:12:50 10° NW visible
06 Dec 4.7 19:47:05 10° W 19:48:40 12° WNW 19:50:14 10° NW visible
